TimeHST,TemperatureF,Dew PointF,Humidity,Sea Level PressureIn,VisibilityMPH,Wind Direction,Wind SpeedMPH,Gust SpeedMPH,PrecipitationIn,Events,Conditions,WindDirDegrees,DateUTC
12:23 AM,73.4,66.2,78,30.14,10.0,ENE,16.1,-,N/A,,Mostly Cloudy,60,2012-01-22 10:23:00
12:53 AM,73.9,66.0,76,30.15,10.0,NE,15.0,23.0,N/A,,Mostly Cloudy,50,2012-01-22 10:53:00
1:09 AM,73.4,66.2,78,30.15,10.0,ENE,15.0,-,N/A,,Overcast,60,2012-01-22 11:09:00
1:53 AM,73.9,66.0,76,30.12,10.0,ENE,17.3,-,N/A,,Mostly Cloudy,60,2012-01-22 11:53:00
2:53 AM,73.9,66.0,76,30.11,10.0,NE,18.4,-,N/A,,Overcast,50,2012-01-22 12:53:00
3:53 AM,73.9,66.0,76,30.09,10.0,ENE,19.6,-,N/A,,Overcast,60,2012-01-22 13:53:00
4:53 AM,73.9,66.0,76,30.09,10.0,ENE,19.6,26.5,0.00,,Overcast,60,2012-01-22 14:53:00
5:53 AM,73.9,66.9,79,30.10,10.0,ENE,17.3,-,N/A,,Mostly Cloudy,60,2012-01-22 15:53:00
6:53 AM,73.9,66.9,79,30.10,10.0,ENE,13.8,-,N/A,,Mostly Cloudy,70,2012-01-22 16:53:00
7:53 AM,73.9,66.0,76,30.11,10.0,ENE,16.1,20.7,N/A,,Mostly Cloudy,70,2012-01-22 17:53:00
8:53 AM,75.9,66.0,71,30.11,10.0,East,15.0,-,N/A,,Partly Cloudy,80,2012-01-22 18:53:00
9:53 AM,77.0,66.0,69,30.12,10.0,East,13.8,-,N/A,,Mostly Cloudy,90,2012-01-22 19:53:00
10:53 AM,77.0,66.9,71,30.11,10.0,ENE,12.7,-,N/A,,Mostly Cloudy,70,2012-01-22 20:53:00
11:53 AM,79.0,68.0,69,30.07,10.0,East,15.0,-,N/A,,Partly Cloudy,80,2012-01-22 21:53:00
12:53 PM,79.0,69.1,72,30.04,10.0,East,15.0,-,N/A,,Partly Cloudy,90,2012-01-22 22:53:00
1:53 PM,79.0,68.0,69,30.01,10.0,East,12.7,-,N/A,,Partly Cloudy,90,2012-01-22 23:53:00
2:53 PM,78.1,66.9,68,29.99,10.0,SE,9.2,-,N/A,,Partly Cloudy,130,2012-01-23 00:53:00
3:53 PM,77.0,66.0,69,30.00,10.0,East,4.6,-,N/A,,Clear,90,2012-01-23 01:53:00
4:53 PM,77.0,66.9,71,30.01,10.0,Calm,Calm,-,N/A,,Mostly Cloudy,0,2012-01-23 02:53:00
5:53 PM,75.9,66.0,71,30.02,10.0,East,3.5,-,N/A,,Partly Cloudy,100,2012-01-23 03:53:00
6:53 PM,73.9,66.9,79,30.03,10.0,SE,6.9,-,N/A,,Mostly Cloudy,140,2012-01-23 04:53:00
7:01 PM,73.4,66.2,78,30.04,10.0,SSE,6.9,-,N/A,,Scattered Clouds,160,2012-01-23 05:01:00
7:53 PM,73.0,66.0,79,30.05,10.0,South,6.9,-,N/A,,Clear,180,2012-01-23 05:53:00
8:53 PM,71.1,64.9,81,30.06,10.0,WNW,3.5,-,N/A,,Clear,290,2012-01-23 06:53:00
9:53 PM,70.0,64.9,84,30.06,10.0,Calm,Calm,-,N/A,,Clear,0,2012-01-23 07:53:00
10:53 PM,69.1,64.9,87,30.06,10.0,WSW,5.8,-,N/A,,Mostly Cloudy,250,2012-01-23 08:53:00
11:53 PM,68.0,64.0,87,30.07,10.0,West,5.8,-,N/A,,Partly Cloudy,260,2012-01-23 09:53:00